GW6177 Weather Reports


time (UTC)temp
C
wind
direction
speed
KPH
gust
KPH
rain 1hr
cm
rain 24hr
cm
rain mn
cm
humidity
%
barometer
mb
20260906003918 30 343 0.0 1.6 0.00 0.00 0.00 67 1011.6
20260906003413 31 335 0.0 1.6 0.00 0.00 0.00 67 1011.8
20260906002909 31 326 0.0 3.2 0.00 0.00 0.00 66 1011.6
20260906002408 31 0 0.0 3.2 0.00 0.00 0.00 66 1011.5
20260906001904 31 330 1.6 3.2 0.00 0.00 0.00 65 1011.7
20260906001359 31 323 1.6 3.2 0.00 0.00 0.00 64 1011.6
20260906000859 31 304 0.0 3.2 0.00 0.00 0.00 64 1011.7
20260906000400 32 345 1.6 1.6 0.00 0.00 0.00 63 1011.8
20260905235854 32 318 0.0 1.6 0.00 0.00 0.00 62 1011.7
20260905235349 32 312 0.0 3.2 0.00 0.00 0.00 62 1011.5
20260905234844 32 315 1.6 3.2 0.00 0.00 0.00 61 1011.7
20260905234339 32 309 1.6 3.2 0.00 0.00 0.00 60 1011.5
20260905233834 32 297 0.0 1.6 0.00 0.00 0.00 59 1011.5
20260905233329 32 343 1.6 3.2 0.00 0.00 0.00 59 1011.5
20260905232828 33 320 1.6 3.2 0.00 0.00 0.00 59 1011.7
20260905232325 33 333 0.0 3.2 0.00 0.00 0.00 58 1011.7
20260905231820 33 317 1.6 3.2 0.00 0.00 0.00 58 1011.5
20260905231315 33 322 0.0 3.2 0.00 0.00 0.00 56 1011.5
20260905230812 34 316 0.0 3.2 0.00 0.00 0.00 55 1011.5
20260905230309 34 305 3.2 3.2 0.00 0.00 0.00 54 1011.6
20260905225809 35 283 1.6 3.2 0.00 0.00 0.00 51 1011.6
20260905225306 36 308 3.2 3.2 0.00 0.00 0.00 49 1011.5
20260905224804 37 315 1.6 3.2 0.00 0.00 0.00 47 1011.6
20260905224259 37 308 1.6 3.2 0.00 0.00 0.00 46 1011.3
20260905223754 37 313 1.6 1.6 0.00 0.00 0.00 48 1011.3
20260905223252 36 326 1.6 3.2 0.00 0.00 0.00 49 1011.3
20260905222747 36 316 1.6 3.2 0.00 0.00 0.00 47 1011.2
20260905222246 36 316 3.2 3.2 0.00 0.00 0.00 48 1011.6
20260905221742 37 301 1.6 3.2 0.00 0.00 0.00 45 1011.2
20260905221239 36 316 3.2 3.2 0.00 0.00 0.00 45 1011.2
20260905220734 36 332 1.6 3.2 0.00 0.00 0.00 48 1011.0
20260905220230 36 327 0.0 4.8 0.00 0.00 0.00 50 1011.0
20260905215729 36 311 0.0 3.2 0.00 0.00 0.00 49 1011.3
20260905215226 36 301 1.6 3.2 0.00 0.00 0.00 47 1011.2
20260905214721 36 302 1.6 3.2 0.00 0.00 0.00 47 1011.3
20260905214216 36 304 1.6 3.2 0.00 0.00 0.00 47 1011.3
20260905213712 36 255 1.6 3.2 0.00 0.00 0.00 46 1011.3
20260905213208 36 319 1.6 3.2 0.00 0.00 0.00 48 1011.3
20260905212703 35 286 0.0 3.2 0.00 0.00 0.00 50 1011.5
20260905212202 34 309 0.0 1.6 0.00 0.00 0.00 54 1011.5
20260905211656 34 315 0.0 3.2 0.00 0.00 0.00 59 1011.6
20260905211152 35 327 0.0 3.2 0.00 0.00 0.00 57 1011.3
20260905210648 35 300 0.0 1.6 0.00 0.00 0.00 55 1011.3
20260905210143 35 328 1.6 1.6 0.00 0.00 0.00 54 1011.7
20260905205642 36 312 1.6 1.6 0.00 0.00 0.00 52 1011.6
20260905205141 35 324 1.6 3.2 0.00 0.00 0.00 49 1011.7
20260905204640 35 309 3.2 4.8 0.00 0.00 0.00 48 1011.6
20260905204136 35 321 0.0 3.2 0.00 0.00 0.00 50 1011.6
20260905203637 35 316 1.6 3.2 0.00 0.00 0.00 49 1011.5
20260905203132 36 309 1.6 3.2 0.00 0.00 0.00 48 1011.6
20260905202627 36 311 1.6 3.2 0.00 0.00 0.00 47 1011.6
20260905202123 36 333 1.6 3.2 0.00 0.00 0.00 46 1011.6
20260905201619 37 320 3.2 6.4 0.00 0.00 0.00 46 1011.6
20260905201118 37 325 3.2 6.4 0.00 0.00 0.00 44 1011.9
20260905200614 37 311 1.6 3.2 0.00 0.00 0.00 45 1011.7
20260905200109 37 277 1.6 4.8 0.00 0.00 0.00 47 1012.0
20260905195607 37 297 0.0 3.2 0.00 0.00 0.00 45 1011.8
20260905195103 37 330 3.2 3.2 0.00 0.00 0.00 44 1011.8
20260905194602 38 335 3.2 4.8 0.00 0.00 0.00 43 1011.9
20260905194102 37 312 3.2 8.0 0.00 0.00 0.00 43 1011.6
20260905193557 37 353 3.2 3.2 0.00 0.00 0.00 47 1012.1
20260905193052 38 296 3.2 6.4 0.00 0.00 0.00 44 1012.0
20260905192547 38 315 3.2 6.4 0.00 0.00 0.00 42 1012.0
20260905192044 38 272 3.2 4.8 0.00 0.00 0.00 39 1012.1
20260905191542 38 284 0.0 3.2 0.00 0.00 0.00 42 1012.0
20260905191042 38 315 0.0 3.2 0.00 0.00 0.00 41 1012.0
20260905190540 38 268 3.2 4.8 0.00 0.00 0.00 41 1012.2
20260905190039 38 290 3.2 6.4 0.00 0.00 0.00 43 1012.3
20260905185539 38 311 3.2 4.8 0.00 0.00 0.00 46 1012.1
20260905185038 38 300 1.6 4.8 0.00 0.00 0.00 40 1012.4
20260905184539 38 332 1.6 3.2 0.00 0.00 0.00 43 1012.5
20260905184038 37 307 3.2 3.2 0.00 0.00 0.00 46 1012.7
20260905183537 37 287 3.2 6.4 0.00 0.00 0.00 45 1012.8
20260905183033 37 317 3.2 4.8 0.00 0.00 0.00 48 1012.7
20260905182533 37 278 1.6 3.2 0.00 0.00 0.00 44 1012.6
20260905182032 37 309 3.2 4.8 0.00 0.00 0.00 44 1012.8
20260905181527 37 324 3.2 3.2 0.00 0.00 0.00 44 1012.7
20260905181026 37 305 3.2 3.2 0.00 0.00 0.00 43 1013.0
20260905180521 37 255 3.2 4.8 0.00 0.00 0.00 43 1012.7
20260905180017 37 349 3.2 6.4 0.00 0.00 0.00 44 1012.9
20260905175516 38 279 3.2 4.8 0.00 0.00 0.00 45 1012.9
20260905175012 38 320 6.4 6.4 0.00 0.00 0.00 43 1013.0
20260905174507 37 315 3.2 3.2 0.00 0.00 0.00 45 1013.0
20260905174003 37 318 3.2 4.8 0.00 0.00 0.00 44 1012.9
20260905173459 38 2 0.0 3.2 0.00 0.00 0.00 44 1013.0
20260905172954 38 294 3.2 4.8 0.00 0.00 0.00 43 1012.9
20260905172452 38 310 3.2 4.8 0.00 0.00 0.00 42 1012.9
20260905171948 38 310 3.2 4.8 0.00 0.00 0.00 46 1013.3
20260905171444 37 303 3.2 3.2 0.00 0.00 0.00 48 1013.2
20260905170940 38 330 3.2 3.2 0.00 0.00 0.00 44 1013.1
20260905170436 38 324 3.2 3.2 0.00 0.00 0.00 44 1013.2
20260905165936 38 292 3.2 4.8 0.00 0.00 0.00 50 1013.2
20260905165431 37 324 3.2 3.2 0.00 0.00 0.00 50 1013.4
20260905164926 36 310 3.2 4.8 0.00 0.00 0.00 48 1013.4
20260905164426 36 306 3.2 8.0 0.00 0.00 0.00 48 1013.3
20260905163921 37 278 3.2 3.2 0.00 0.00 0.00 46 1013.5
20260905163417 37 309 3.2 3.2 0.00 0.00 0.00 47 1013.4
20260905162913 37 305 1.6 3.2 0.00 0.00 0.00 46 1013.5
20260905162408 37 312 3.2 4.8 0.00 0.00 0.00 47 1013.4
20260905161903 36 319 3.2 3.2 0.00 0.00 0.00 50 1013.3
20260905161401 36 336 0.0 3.2 0.00 0.00 0.00 50 1013.5
20260905160900 35 309 1.6 6.4 0.00 0.00 0.00 53 1013.5
20260905160354 35 280 3.2 4.8 0.00 0.00 0.00 54 1013.5
20260905155849 35 268 3.2 4.8 0.00 0.00 0.00 51 1013.6
20260905155348 36 291 1.6 3.2 0.00 0.00 0.00 52 1013.5
20260905154848 35 289 1.6 3.2 0.00 0.00 0.00 53 1013.6
20260905154343 35 271 3.2 4.8 0.00 0.00 0.00 51 1013.7
20260905153838 35 320 1.6 3.2 0.00 0.00 0.00 51 1013.7
20260905153335 36 327 3.2 4.8 0.00 0.00 0.00 50 1013.8
20260905152835 36 285 1.6 3.2 0.00 0.00 0.00 54 1013.4
20260905152334 35 301 1.6 3.2 0.00 0.00 0.00 54 1013.6
20260905151829 36 92 1.6 3.2 0.00 0.00 0.00 51 1013.7
20260905151325 35 313 3.2 3.2 0.00 0.00 0.00 56 1013.8
20260905150824 34 292 3.2 3.2 0.00 0.00 0.00 56 1013.9
20260905150319 33 322 0.0 3.2 0.00 0.00 0.00 57 1013.6
20260905145817 33 311 3.2 3.2 0.00 0.00 0.00 56 1013.6
20260905145316 34 312 1.6 4.8 0.00 0.00 0.00 55 1013.7
20260905144815 34 308 1.6 3.2 0.00 0.00 0.00 57 1013.6
20260905144311 33 326 3.2 3.2 0.00 0.00 0.00 56 1013.7
20260905143810 33 323 3.2 3.2 0.00 0.00 0.00 58 1013.6
20260905143304 33 309 0.0 3.2 0.00 0.00 0.00 59 1013.6
20260905142803 33 311 3.2 4.8 0.00 0.00 0.00 60 1013.4
20260905142257 33 289 1.6 3.2 0.00 0.00 0.00 59 1013.5
20260905141754 32 287 1.6 3.2 0.00 0.00 0.00 60 1013.7
20260905141249 32 333 1.6 3.2 0.00 0.00 0.00 60 1013.6
20260905140744 32 331 1.6 3.2 0.00 0.00 0.00 61 1013.5
20260905140244 32 328 1.6 3.2 0.00 0.00 0.00 61 1013.6
20260905135743 31 337 1.6 3.2 0.00 0.00 0.00 63 1013.7
20260905135240 31 321 1.6 3.2 0.00 0.00 0.00 66 1013.6
20260905134739 30 15 0.0 3.2 0.00 0.00 0.00 67 1013.8
20260905134239 30 319 0.0 3.2 0.00 0.00 0.00 69 1013.5
20260905133733 29 337 1.6 1.6 0.00 0.00 0.00 76 1013.7
20260905133229 27 343 1.6 1.6 0.00 0.00 0.00 78 1013.8
20260905132727 27 6 0.0 0.0 0.00 0.00 0.00 85 1013.8
20260905132223 26 25 0.0 0.0 0.00 0.00 0.00 86 1013.7
20260905131718 26 338 1.6 1.6 0.00 0.00 0.00 87 1013.7
20260905131213 26 354 0.0 1.6 0.00 0.00 0.00 88 1013.8
20260905130708 26 25 0.0 1.6 0.00 0.00 0.00 89 1013.7
20260905130207 25 25 0.0 0.0 0.00 0.00 0.00 90 1013.8
20260905125702 25 336 0.0 1.6 0.00 0.00 0.00 89 1013.8
20260905125158 25 336 0.0 1.6 0.00 0.00 0.00 89 1013.5
20260905124654 25 32 0.0 1.6 0.00 0.00 0.00 89 1013.7
20260905124149 25 37 0.0 3.2 0.00 0.00 0.00 91 1013.4
20260905123644 24 322 1.6 3.2 0.00 0.00 0.00 91 1013.6
20260905123142 23 19 3.2 3.2 0.00 0.00 0.00 92 1013.2
20260905122641 23 119 0.0 1.6 0.00 0.00 0.00 92 1013.3
20260905122136 23 36 1.6 1.6 0.00 0.00 0.00 92 1013.5
20260905121631 23 6 0.0 0.0 0.00 0.00 0.00 92 1013.4
20260905121126 23 45 0.0 1.6 0.00 0.00 0.00 92 1013.4
20260905120625 23 28 0.0 1.6 0.00 0.00 0.00 92 1013.1
20260905120120 23 23 1.6 1.6 0.00 0.00 0.00 92 1013.4
20260905115619 23 347 0.0 3.2 0.00 0.00 0.00 92 1013.2
20260905115114 23 24 1.6 1.6 0.00 0.00 0.00 92 1013.0
20260905114614 23 24 1.6 1.6 0.00 0.00 0.00 92 1013.0
20260905114113 23 30 0.0 1.6 0.00 0.00 0.00 92 1013.1
20260905113608 22 345 0.0 0.0 0.00 0.00 0.00 91 1012.8
20260905113103 23 38 0.0 0.0 0.00 0.00 0.00 90 1012.9
20260905112558 23 296 0.0 0.0 0.00 0.00 0.00 90 1013.1
20260905112054 23 333 0.0 3.2 0.00 0.00 0.00 90 1012.9
20260905111549 23 340 0.0 3.2 0.00 0.00 0.00 90 1012.7
20260905111048 23 7 0.0 3.2 0.00 0.00 0.00 90 1012.5
20260905110547 23 5 1.6 1.6 0.00 0.00 0.00 90 1012.7
20260905110042 23 11 0.0 0.0 0.00 0.00 0.00 89 1012.7
20260905105542 23 13 0.0 0.0 0.00 0.00 0.00 89 1012.8
20260905105041 23 6 0.0 0.0 0.00 0.00 0.00 88 1012.7
20260905104538 23 19 0.0 1.6 0.00 0.00 0.00 88 1012.8
20260905104037 23 32 0.0 0.0 0.00 0.00 0.00 87 1012.6
20260905103532 23 343 0.0 1.6 0.00 0.00 0.00 87 1012.9
20260905103029 24 25 0.0 1.6 0.00 0.00 0.00 86 1013.1
20260905102524 24 37 0.0 0.0 0.00 0.00 0.00 86 1012.9
20260905102020 24 309 0.0 1.6 0.00 0.00 0.00 85 1012.6
20260905101519 24 322 0.0 1.6 0.00 0.00 0.00 86 1012.8
20260905101017 24 346 0.0 1.6 0.00 0.00 0.00 86 1012.8
20260905100514 24 329 0.0 1.6 0.00 0.00 0.00 85 1012.9
20260905100013 24 15 0.0 1.6 0.00 0.00 0.00 85 1012.9
20260905095508 24 24 0.0 1.6 0.00 0.00 0.00 85 1012.9
20260905095003 24 25 0.0 1.6 0.00 0.00 0.00 85 1012.8
20260905094458 24 37 0.0 1.6 0.00 0.00 0.00 85 1012.7
20260905093957 24 25 0.0 1.6 0.00 0.00 0.00 85 1012.7
20260905093452 24 23 0.0 1.6 0.00 0.00 0.00 84 1012.8
20260905092948 25 28 0.0 1.6 0.00 0.00 0.00 84 1012.8
20260905092443 25 0 0.0 1.6 0.00 0.00 0.00 84 1012.7
20260905091939 25 343 0.0 1.6 0.00 0.00 0.00 84 1012.8
20260905091438 25 321 1.6 1.6 0.00 0.00 0.00 83 1012.9
20260905090938 25 298 0.0 1.6 0.00 0.00 0.00 84 1012.8
20260905090433 25 297 0.0 1.6 0.00 0.00 0.00 82 1013.0
20260905085933 25 321 0.0 1.6 0.00 0.00 0.00 82 1012.9
20260905085432 25 331 0.0 3.2 0.00 0.00 0.00 81 1012.9
20260905084928 25 316 1.6 3.2 0.00 0.00 0.00 81 1012.9
20260905084427 25 322 1.6 3.2 0.00 0.00 0.00 81 1013.0
20260905083922 25 304 0.0 3.2 0.00 0.00 0.00 80 1013.0
20260905083418 25 314 1.6 1.6 0.00 0.00 0.00 79 1013.1
20260905082913 26 343 0.0 1.6 0.00 0.00 0.00 79 1012.8
20260905082409 26 325 1.6 3.2 0.00 0.00 0.00 79 1013.0
20260905081904 26 322 1.6 1.6 0.00 0.00 0.00 79 1013.0
20260905081359 26 326 0.0 3.2 0.00 0.00 0.00 78 1013.1
20260905080857 26 337 1.6 3.2 0.00 0.00 0.00 76 1013.1
20260905080352 26 350 1.6 3.2 0.00 0.00 0.00 77 1013.1
20260905075852 26 326 0.0 3.2 0.00 0.00 0.00 75 1013.3
20260905075351 26 350 0.0 1.6 0.00 0.00 0.00 77 1013.1
20260905074850 26 279 1.6 3.2 0.00 0.00 0.00 75 1013.1
20260905074346 26 307 3.2 3.2 0.00 0.00 0.00 76 1013.0
20260905073841 26 320 1.6 3.2 0.00 0.00 0.00 77 1013.0
20260905073337 25 6 0.0 1.6 0.00 0.00 0.00 80 1013.1
20260905072831 25 343 0.0 0.0 0.00 0.00 0.00 80 1013.1
20260905072326 25 343 0.0 0.0 0.00 0.00 0.00 80 1013.0
20260905071823 25 346 0.0 1.6 0.00 0.00 0.00 79 1013.1
20260905071319 25 343 0.0 0.0 0.00 0.00 0.00 79 1012.9
20260905070813 26 339 0.0 0.0 0.00 0.00 0.00 79 1013.0
20260905070310 26 336 0.0 0.0 0.00 0.00 0.00 78 1013.1
20260905065809 26 322 0.0 1.6 0.00 0.00 0.00 78 1013.0
20260905065308 26 333 0.0 1.6 0.00 0.00 0.00 78 1013.0
20260905064803 26 319 0.0 1.6 0.00 0.00 0.00 77 1013.0
20260905064258 26 336 0.0 1.6 0.00 0.00 0.00 75 1013.0
20260905063757 26 15 0.0 1.6 0.00 0.00 0.00 73 1013.0
20260905063253 26 343 0.0 1.6 0.00 0.00 0.00 73 1013.0
20260905062749 26 322 0.0 1.6 0.00 0.00 0.00 74 1012.9
20260905062249 26 22 0.0 1.6 0.00 0.00 0.00 73 1013.0
20260905061743 26 352 0.0 1.6 0.00 0.00 0.00 73 1013.1
20260905061238 27 32 0.0 1.6 0.00 0.00 0.00 73 1013.1
20260905060732 26 322 0.0 1.6 0.00 0.00 0.00 75 1013.2
20260905060229 26 47 3.2 3.2 0.00 0.00 0.00 74 1013.1
20260905055727 26 50 0.0 3.2 0.00 0.00 0.00 76 1013.2
20260905055223 26 32 0.0 1.6 0.00 0.00 0.00 76 1013.1
20260905054718 26 356 0.0 1.6 0.00 0.00 0.00 78 1013.2
20260905054214 26 2 0.0 0.0 0.00 0.00 0.00 79 1013.3
20260905053714 26 339 0.0 1.6 0.00 0.00 0.00 78 1013.2
20260905053209 26 326 0.0 1.6 0.00 0.00 0.00 77 1013.3
20260905052708 26 343 0.0 1.6 0.00 0.00 0.00 76 1013.2
20260905052203 26 25 0.0 0.0 0.00 0.00 0.00 74 1013.5
20260905051703 26 321 0.0 3.2 0.00 0.00 0.00 73 1013.5
20260905051200 26 8 1.6 3.2 0.00 0.00 0.00 76 1013.4
20260905050656 26 329 0.0 1.6 0.00 0.00 0.00 77 1013.4
20260905050153 26 352 0.0 0.0 0.00 0.00 0.00 78 1013.4
20260905045652 26 0 0.0 1.6 0.00 0.00 0.00 78 1013.3
20260905045148 26 353 0.0 0.0 0.00 0.00 0.00 79 1013.3
20260905044648 26 344 1.6 1.6 0.00 0.00 0.00 82 1013.2
20260905044143 26 11 0.0 0.0 0.00 0.00 0.00 81 1013.1
20260905043642 26 37 0.0 0.0 0.00 0.00 0.00 79 1013.3
20260905043137 26 0 0.0 0.0 0.00 0.00 0.00 78 1013.4
20260905042636 26 15 0.0 0.0 0.00 0.00 0.00 77 1013.4
20260905042131 26 347 0.0 0.0 0.00 0.00 0.00 76 1013.3
20260905041627 26 343 0.0 0.0 0.00 0.00 0.00 75 1013.2
20260905041122 26 333 0.0 0.0 0.00 0.00 0.00 77 1013.3
20260905040622 26 0 0.0 1.6 0.00 0.00 0.00 78 1013.3
20260905040121 26 333 0.0 1.6 0.00 0.00 0.00 77 1013.3
20260905035616 26 322 0.0 0.0 0.00 0.00 0.00 77 1013.4
20260905035113 26 0 0.0 0.0 0.00 0.00 0.00 78 1013.3
20260905034609 26 25 0.0 0.0 0.00 0.00 0.00 79 1013.1
20260905034108 26 333 0.0 0.0 0.00 0.00 0.00 78 1013.3
20260905033608 26 290 0.0 1.6 0.00 0.00 0.00 76 1013.1
20260905033104 26 0 0.0 0.0 0.00 0.00 0.00 78 1013.0
20260905032603 26 338 0.0 0.0 0.00 0.00 0.00 79 1013.2
20260905032103 26 343 0.0 1.6 0.00 0.00 0.00 79 1013.1
20260905031559 26 343 0.0 1.6 0.00 0.00 0.00 78 1013.3
20260905031059 26 333 0.0 1.6 0.00 0.00 0.00 78 1013.3
20260905030554 26 348 0.0 0.0 0.00 0.00 0.00 78 1013.1
20260905030049 26 345 0.0 1.6 0.00 0.00 0.00 79 1013.3
20260905025544 26 15 0.0 0.0 0.00 0.00 0.00 78 1013.1
20260905025040 26 326 0.0 1.6 0.00 0.00 0.00 81 1013.2
20260905024536 26 352 0.0 1.6 0.00 0.00 0.00 80 1013.3
20260905024031 26 0 0.0 0.0 0.00 0.00 0.00 82 1013.1
20260905023526 26 343 0.0 0.0 0.00 0.00 0.00 82 1013.1
20260905023021 26 336 0.0 0.0 0.00 0.00 0.00 81 1013.2
20260905022520 26 345 0.0 1.6 0.00 0.00 0.00 81 1013.0
20260905022016 26 336 0.0 0.0 0.00 0.00 0.00 81 1013.1
20260905021515 26 350 0.0 1.6 0.00 0.00 0.00 81 1013.2
20260905021011 26 348 1.6 1.6 0.00 0.00 0.00 80 1013.2
20260905020505 26 15 0.0 1.6 0.00 0.00 0.00 80 1013.1
20260905020006 26 0 0.0 1.6 0.00 0.00 0.00 79 1013.0
20260905015503 26 29 0.0 0.0 0.00 0.00 0.00 79 1013.0
20260905015003 26 333 0.0 0.0 0.00 0.00 0.00 78 1013.0
20260905014458 26 37 0.0 1.6 0.00 0.00 0.00 78 1012.9
20260905013953 27 25 0.0 0.0 0.00 0.00 0.00 78 1012.7
20260905013450 27 6 0.0 1.6 0.00 0.00 0.00 77 1012.6
20260905012944 27 341 0.0 1.6 0.00 0.00 0.00 75 1012.5
20260905012440 27 345 0.0 0.0 0.00 0.00 0.00 75 1012.6
20260905011936 27 349 0.0 0.0 0.00 0.00 0.00 75 1012.5
20260905011432 27 322 0.0 0.0 0.00 0.00 0.00 74 1012.5
20260905010927 27 343 0.0 0.0 0.00 0.00 0.00 74 1012.5
20260905010422 28 328 0.0 1.6 0.00 0.00 0.00 73 1012.5
20260905005918 28 334 0.0 1.6 0.00 0.00 0.00 72 1012.6
20260905005414 28 324 0.0 1.6 0.00 0.00 0.00 69 1012.4
20260905004909 28 341 0.0 1.6 0.00 0.00 0.00 69 1012.4
20260905004409 28 349 0.0 1.6 0.00 0.00 0.00 69 1012.4